TimeEST,TemperatureF,Dew PointF,Humidity,Sea Level PressureIn,VisibilityMPH,Wind Direction,Wind SpeedMPH,Gust SpeedMPH,PrecipitationIn,Events,Conditions,WindDirDegrees,DateUTC
12:15 AM,36.7,21.2,54,30.39,10.0,Calm,Calm,-,N/A,,Clear,0,2013-11-20 05:15:00
12:35 AM,35.8,21.2,55,30.39,10.0,NNW,5.8,-,N/A,,Clear,340,2013-11-20 05:35:00
12:55 AM,36.1,21.2,55,30.39,10.0,North,6.9,-,N/A,,Clear,360,2013-11-20 05:55:00
1:15 AM,36.0,20.8,54,30.39,10.0,North,5.8,-,N/A,,Clear,10,2013-11-20 06:15:00
1:35 AM,35.8,20.7,54,30.40,10.0,North,4.6,-,N/A,,Clear,360,2013-11-20 06:35:00
1:55 AM,35.6,20.3,54,30.40,10.0,NNE,5.8,-,N/A,,Clear,20,2013-11-20 06:55:00
2:15 AM,35.1,20.3,55,30.41,10.0,NNE,5.8,-,N/A,,Clear,30,2013-11-20 07:15:00
2:35 AM,35.2,20.3,55,30.41,10.0,NNE,3.5,-,N/A,,Clear,20,2013-11-20 07:35:00
2:55 AM,35.1,20.1,55,30.42,10.0,North,5.8,-,N/A,,Clear,10,2013-11-20 07:55:00
3:15 AM,34.9,20.1,55,30.43,10.0,North,3.5,-,N/A,,Clear,10,2013-11-20 08:15:00
3:35 AM,34.7,20.1,55,30.44,10.0,North,3.5,-,N/A,,Clear,360,2013-11-20 08:35:00
3:55 AM,34.3,20.3,57,30.45,10.0,North,5.8,-,N/A,,Clear,350,2013-11-20 08:55:00
4:15 AM,34.2,20.3,57,30.46,10.0,North,3.5,-,N/A,,Clear,10,2013-11-20 09:15:00
4:35 AM,34.3,20.3,57,30.46,10.0,NNW,3.5,-,N/A,,Clear,340,2013-11-20 09:35:00
4:55 AM,33.8,20.3,58,30.47,10.0,Calm,Calm,-,N/A,,Clear,0,2013-11-20 09:55:00
5:15 AM,34.0,20.5,58,30.48,10.0,NNE,3.5,-,N/A,,Clear,20,2013-11-20 10:15:00
5:35 AM,34.0,20.7,58,30.49,10.0,North,5.8,-,N/A,,Clear,10,2013-11-20 10:35:00
5:55 AM,33.8,20.7,59,30.49,10.0,NNE,5.8,-,N/A,,Clear,20,2013-11-20 10:55:00
6:15 AM,33.8,20.5,58,30.51,10.0,NNE,6.9,-,N/A,,Clear,30,2013-11-20 11:15:00
6:35 AM,33.8,20.8,59,30.51,10.0,NNE,10.4,-,N/A,,Clear,30,2013-11-20 11:35:00
6:55 AM,33.6,20.8,59,30.52,10.0,NE,8.1,-,N/A,,Clear,40,2013-11-20 11:55:00
7:15 AM,33.4,20.8,60,30.53,10.0,NE,6.9,-,N/A,,Clear,50,2013-11-20 12:15:00
7:35 AM,34.0,21.0,59,30.54,10.0,NE,6.9,-,N/A,,Clear,40,2013-11-20 12:35:00
7:55 AM,34.9,20.8,57,30.55,10.0,NE,6.9,-,N/A,,Clear,40,2013-11-20 12:55:00
8:15 AM,34.7,20.1,55,30.55,10.0,NE,9.2,-,N/A,,Clear,50,2013-11-20 13:15:00
8:35 AM,34.9,19.4,53,30.55,10.0,NE,11.5,16.1,N/A,,Clear,40,2013-11-20 13:35:00
8:55 AM,35.8,18.9,50,30.56,10.0,North,9.2,-,N/A,,Clear,10,2013-11-20 13:55:00
9:15 AM,37.4,18.5,46,30.57,10.0,NNE,5.8,-,N/A,,Clear,30,2013-11-20 14:15:00
9:35 AM,38.3,17.2,43,30.58,10.0,North,9.2,-,N/A,,Clear,10,2013-11-20 14:35:00
9:55 AM,39.9,16.3,38,30.59,10.0,NE,8.1,-,N/A,,Clear,40,2013-11-20 14:55:00
10:15 AM,40.1,15.3,36,30.59,10.0,NNE,6.9,-,N/A,,Clear,30,2013-11-20 15:15:00
10:35 AM,41.2,14.5,34,30.59,10.0,NNE,8.1,-,N/A,,Clear,30,2013-11-20 15:35:00
10:55 AM,41.7,13.6,32,30.59,10.0,NE,6.9,-,N/A,,Clear,40,2013-11-20 15:55:00
11:15 AM,42.1,13.1,31,30.58,10.0,NE,5.8,-,N/A,,Clear,40,2013-11-20 16:15:00
11:35 AM,43.2,12.6,29,30.58,10.0,NE,6.9,-,N/A,,Clear,50,2013-11-20 16:35:00
11:55 AM,43.3,12.6,29,30.58,10.0,NNE,8.1,-,N/A,,Clear,20,2013-11-20 16:55:00
12:15 PM,45.0,9.9,24,30.57,10.0,ENE,9.2,-,N/A,,Clear,60,2013-11-20 17:15:00
12:35 PM,44.8,9.7,24,30.57,10.0,ENE,8.1,-,N/A,,Clear,60,2013-11-20 17:35:00
12:55 PM,45.5,7.9,22,30.58,10.0,East,8.1,-,N/A,,Clear,80,2013-11-20 17:55:00
1:15 PM,46.0,8.6,22,30.58,10.0,NNE,4.6,-,N/A,,Clear,30,2013-11-20 18:15:00
1:35 PM,46.4,6.3,19,30.57,10.0,ENE,6.9,-,N/A,,Clear,70,2013-11-20 18:35:00
1:55 PM,46.2,6.4,20,30.57,10.0,ESE,6.9,-,N/A,,Clear,110,2013-11-20 18:55:00
2:15 PM,46.4,6.8,20,30.57,10.0,East,8.1,-,N/A,,Clear,100,2013-11-20 19:15:00
2:35 PM,46.4,6.4,20,30.58,10.0,ESE,4.6,-,N/A,,Clear,110,2013-11-20 19:35:00
2:55 PM,46.2,7.9,21,30.57,10.0,NNE,3.5,-,N/A,,Clear,30,2013-11-20 19:55:00
3:15 PM,46.2,7.3,20,30.57,10.0,East,4.6,-,N/A,,Clear,100,2013-11-20 20:15:00
3:35 PM,45.9,7.2,21,30.58,10.0,ESE,4.6,-,N/A,,Clear,110,2013-11-20 20:35:00
3:55 PM,45.9,9.1,22,30.58,10.0,East,8.1,-,N/A,,Clear,100,2013-11-20 20:55:00
4:15 PM,44.8,9.3,24,30.58,10.0,ESE,4.6,-,N/A,,Clear,120,2013-11-20 21:15:00
4:35 PM,43.5,10.4,26,30.58,10.0,Calm,Calm,-,N/A,,Clear,0,2013-11-20 21:35:00
4:55 PM,43.7,10.4,26,30.58,10.0,Calm,Calm,-,N/A,,Clear,0,2013-11-20 21:55:00
5:15 PM,43.3,10.4,26,30.58,10.0,Calm,Calm,-,N/A,,Clear,0,2013-11-20 22:15:00
5:35 PM,43.2,10.4,26,30.59,10.0,Calm,Calm,-,N/A,,Clear,0,2013-11-20 22:35:00
5:55 PM,42.3,10.8,28,30.59,10.0,Calm,Calm,-,N/A,,Clear,0,2013-11-20 22:55:00
6:15 PM,42.8,10.9,27,30.59,10.0,Calm,Calm,-,N/A,,Clear,0,2013-11-20 23:15:00
6:35 PM,43.2,11.1,27,30.59,10.0,East,4.6,-,N/A,,Clear,80,2013-11-20 23:35:00
6:55 PM,41.7,12.2,30,30.59,10.0,ENE,4.6,-,N/A,,Clear,60,2013-11-20 23:55:00
7:15 PM,41.2,13.8,33,30.60,10.0,ENE,6.9,-,N/A,,Clear,70,2013-11-21 00:15:00
7:35 PM,41.0,14.0,33,30.59,10.0,ENE,8.1,-,N/A,,Clear,60,2013-11-21 00:35:00
7:55 PM,40.5,14.7,35,30.60,10.0,ENE,6.9,-,N/A,,Clear,60,2013-11-21 00:55:00
8:15 PM,39.7,16.3,39,30.60,10.0,ENE,6.9,-,N/A,,Clear,60,2013-11-21 01:15:00
8:35 PM,39.6,17.4,41,30.60,10.0,ENE,4.6,-,N/A,,Clear,70,2013-11-21 01:35:00
8:55 PM,39.0,18.9,44,30.60,10.0,NE,4.6,-,N/A,,Clear,50,2013-11-21 01:55:00
9:15 PM,38.7,18.5,44,30.61,10.0,NNE,3.5,-,N/A,,Clear,30,2013-11-21 02:15:00
9:35 PM,38.5,18.1,44,30.61,10.0,NNE,4.6,-,N/A,,Clear,30,2013-11-21 02:35:00
9:55 PM,37.8,18.0,45,30.62,10.0,North,3.5,-,N/A,,Clear,10,2013-11-21 02:55:00
10:15 PM,37.4,17.8,45,30.62,10.0,Calm,Calm,-,N/A,,Clear,0,2013-11-21 03:15:00
10:35 PM,36.0,18.3,49,30.63,10.0,NW,3.5,-,N/A,,Clear,310,2013-11-21 03:35:00
10:55 PM,33.6,19.2,56,30.63,10.0,NW,4.6,-,N/A,,Clear,320,2013-11-21 03:55:00
11:15 PM,33.1,19.4,57,30.64,10.0,NW,3.5,-,N/A,,Clear,320,2013-11-21 04:15:00
11:35 PM,32.9,19.8,59,30.64,10.0,NW,3.5,-,N/A,,Clear,320,2013-11-21 04:35:00
11:55 PM,33.6,19.4,56,30.64,10.0,NW,3.5,-,N/A,,Clear,320,2013-11-21 04:55:00